Location: Rounton
(54.4000°N, 1.3500°W)
Time: 13:48:38
(UTC+00:00)

ISS - Visible Passes

Search period start: 04 December 2023 00:00
Search period end: 14 December 2023 00:00
Orbit: 415 x 417 km, 51.6° (Epoch: 04 December)

Date Brightness Start Highest point End Pass type
(mag) Time Alt. Az. Time Alt. Az. Time Alt. Az.
04 Dec -2.0 16:26:25 10° W 16:29:29 33° SSW 16:32:33 10° SE visible
04 Dec -0.6 18:04:29 10° WSW 18:05:29 11° SW 18:06:30 10° SSW visible
05 Dec -0.8 17:15:04 10° WSW 17:17:09 16° SW 17:19:15 10° S visible
06 Dec -0.9 16:26:07 10° W 16:28:43 21° SSW 16:31:19 10° SSE visible
08 Dec -0.2 16:26:20 10° WSW 16:27:37 12° SW 16:28:54 10° SSW visible
